This demonstration page uses our WeatherBlox Daily Observations layout. Learn more.

Left ArrowRight Arrow

Hourly Observations for April 28, 2021

Temp ( °F °C ) Dew Point ( °F °C ) Humidity (%) Winds ( mph kmh ) Pressure ( in mb ) Visibility ( mi km ) Precip ( " mm )
12:28 am 00:28 Mostly Cloudy with Mist and Fog 51 10.6 48 8.9 89 89 ENE 15 24 29.86 1011 6 10 0.01 0.25
12:53 am 00:53 Cloudy with Mist and Fog 51 10.6 48 8.9 89 89 ENE 16 26 29.85 1011 6 10 0.01 0.25
1:00 am 01:00 Cloudy with Mist and Fog 51 10.6 48 8.9 89 89 ENE 17 28 29.85 1011 6 10 0.00 0.00
1:28 am 01:28 Cloudy with Nearby Thunderstorms 51 10.6 48 8.9 89 89 ENE 15 24 29.85 1011 6 10 0.00 0.00
1:53 am 01:53 Cloudy with Thunderstorms 51 10.6 48 8.9 89 89 NNE 8 13 29.89 1012 6 10 0.00 0.00
2:09 am 02:09 Cloudy with Mist and Fog 51 10.6 48 8.9 89 89 NE 12 19 29.90 1013 6 10 0.00 0.00
2:53 am 02:53 Cloudy with Mist and Fog 50 10 48 8.9 93 93 NE 14 22 29.88 1012 5 8 0.00 0.00
3:06 am 03:06 Cloudy with Mist and Fog 50 10 48 8.9 93 93 NE 14 22 29.90 1012 5 8 0.00 0.00
3:53 am 03:53 Cloudy with Light Rain 50 10 49 9.4 96 96 NE 13 20 29.87 1012 4 6 0.00 0.00
4:05 am 04:05 Cloudy with Mist and Fog 50 10 49 9.4 96 96 NE 13 20 29.89 1012 4 6 0.00 0.00
4:14 am 04:14 Cloudy with Mist and Fog 50 10 48 8.9 93 93 NE 14 22 29.89 1012 4 6 0.00 0.00
4:53 am 04:53 Cloudy with Light Rain 50 10 48 8.9 93 93 ENE 12 19 29.86 1011 4 6 0.00 0.00
5:17 am 05:17 Cloudy with Mist and Fog 50 10 49 9.4 96 96 ENE 15 24 29.88 1012 4 6 0.00 0.00
5:53 am 05:53 Cloudy with Mist and Fog 50 10 48 8.9 93 93 NE 14 22 29.86 1011 4 6 0.00 0.00
6:08 am 06:08 Cloudy with Mist and Fog 50 10 48 8.9 93 93 ENE 12 19 29.89 1012 5 8 0.00 0.00
6:23 am 06:23 Cloudy with Mist and Fog 50 10 48 8.9 93 93 NE 13 20 29.90 1012 6 10 0.00 0.00
6:53 am 06:53 Cloudy 50 10 48 8.9 93 93 NNE 9 15 29.90 1012 8 13 0.00 0.00
7:53 am 07:53 Cloudy 50 10 48 8.9 93 93 NE 15 24 29.90 1013 8 13 0.00 0.00
8:53 am 08:53 Cloudy 50 10 48 8.9 93 93 NE 13 20 29.93 1013 7 11 0.00 0.00
9:53 am 09:53 Cloudy with Mist and Fog 51 10.6 49 9.4 92 92 NNE 14 22 29.94 1014 5 8 0.00 0.00
10:53 am 10:53 Cloudy 53 11.7 50 10 89 89 NNE 16 26 29.94 1014 7 11 0.00 0.00
11:53 am 11:53 Cloudy with Mist and Fog 53 11.7 50 10 89 89 NNE 15 24 29.96 1015 6 10 0.00 0.00
12:53 pm 12:53 Cloudy 54 12.2 50 10 87 87 NNE 18 30 29.95 1014 7 11 0.00 0.00
1:08 pm 13:08 Cloudy 55 12.8 51 10.6 87 87 NNE 20 31 29.94 1014 8 13 0.00 0.00
1:53 pm 13:53 Cloudy 56 13.3 52 11.1 87 87 NNE 15 24 29.94 1014 8 13 0.00 0.00
2:53 pm 14:53 Cloudy 58 14.4 52 11.1 81 81 NE 12 19 29.92 1013 9 14 0.00 0.00
3:14 pm 15:14 Cloudy 59 15 53 11.7 81 81 NNE 16 26 29.90 1013 10 16 0.00 0.00
3:53 pm 15:53 Cloudy 60 15.6 53 11.7 78 78 NNE 13 20 29.91 1013 10 16 0.00 0.00
4:53 pm 16:53 Cloudy 62 16.7 52 11.1 70 70 NE 15 24 29.90 1013 10 16 0.00 0.00
5:31 pm 17:31 Cloudy 63 17.2 52 11.1 68 68 NNE 17 28 29.88 1012 10 16 0.00 0.00
5:53 pm 17:53 Cloudy 63 17.2 52 11.1 68 68 NNE 14 22 29.91 1013 10 16 0.00 0.00
6:13 pm 18:13 Cloudy 63 17.2 52 11.1 68 68 NNE 17 28 29.88 1012 10 16 0.00 0.00
6:21 pm 18:21 Cloudy 63 17.2 51 10.6 65 65 NNE 16 26 29.88 1012 10 16 0.00 0.00
6:53 pm 18:53 Cloudy 62 16.7 51 10.6 67 67 NNE 16 26 29.93 1013 10 16 0.00 0.00
7:53 pm 19:53 Cloudy 61 16.1 51 10.6 70 70 NNE 13 20 29.94 1014 10 16 0.00 0.00
8:53 pm 20:53 Mostly Clear 57 13.9 50 10 78 78 NNE 5 7 29.96 1015 10 16 0.00 0.00
9:53 pm 21:53 Partly Cloudy 52 11.1 48 8.9 86 86 WNW 5 7 30.00 1016 10 16 0.00 0.00
10:53 pm 22:53 Clear 51 10.6 48 8.9 89 89 W 6 9 30.01 1016 9 14 0.00 0.00
11:53 pm 23:53 Clear 51 10.6 48 8.9 89 89 W 3 6 30.02 1017 8 13 0.00 0.00

Powered by AerisWeather